Submittal Forms
Current Contests
Recent Contests

Club Activity Tracker - Niagara Frontier Radiosport (from club selection on form)

Recent postings for the selected club or group are listed below. Other than the call used, all calls listed are only those associated with the club or group. Click on a call to see the details of the posting.
Status Key: new=new posting, update=update prior posting, move=change club/group, delete=delete prior posting.

Sort by   for past

TimestampCallContestClassPowerScoreStatus
2020-05-20 20:02:02W2VMCWopsTSingle OpLP4,284new5593
2020-05-20 14:02:31W2VMCWopsTSingle OpLP1,720new5592
2020-05-17 00:01:19AA2ZWHamventionSingle OpLP25new5569
2020-05-13 20:01:46W2VMCWopsTSingle OpLP2,256new5575
2020-05-13 14:03:38W2VMCWopsTSingle OpHP2,850new5574
2020-05-10 18:57:12K2QBVolta RTTYSOSB/20HP43,340new5563
2020-05-10 18:54:30K2QBArQPSOMixedHP646new5565
2020-05-10 12:57:59K2NVCQ-MSOABCWHP80,665new5564
2020-05-10 04:01:33NS2NArQPSOMixedHP7,667new5565
2020-05-10 03:04:16N2CUArQPSOMixedHP12,189new5565
 
2020-05-07 04:02:30W2VMCWopsTSingle OpLP3,080new5559
2020-05-06 20:02:12W2VMCWopsTSingle OpLP2,352new5558
2020-05-06 14:02:02W2VMCWopsTSingle OpLP1,716new5557
2020-05-04 13:13:41K2QBNewEngQPSingle OpHP4,260new5547
2020-05-04 13:12:06K2QBARISO CWHP2,432new5543
2020-05-04 02:13:35W2TBNewEngQPSingle OpHP242new5547
2020-05-04 02:12:40W2TBInQPSingle OpHP464new5545
2020-05-04 02:11:16W2TBDeQPSingle OpLP100new5546
2020-05-04 02:09:57W2TB7QPSO(A)MixedHP22,196new5544
2020-05-04 01:20:18KA2WIKNewEngQPSingle OpLP2,352new5547
 
2020-05-04 01:10:08NS2NDeQPSingle OpHP900new5546
2020-05-04 01:08:25NS2NInQPSingle OpHP697new5545
2020-05-04 01:04:40NS2N7QPSO(A)MixedHP42,711new5544
2020-05-04 01:02:01NS2NNewEngQPSingle OpHP16,698new5547
2020-05-04 00:25:29N2CU7QPSOMixedHP29,036new5544
2020-05-04 00:21:34N2CUNewEngQPSingle OpHP17,700new5547
2020-05-04 00:21:08W2DXENewEngQPSingle OpLP6,048new5547
2020-05-04 00:19:01N2CUInQPSingle OpHP1,250new5545
2020-05-04 00:16:38N2CUDeQPSingle OpHP1,750new5546
2020-05-04 00:08:51NS2NARISO CWHP12,000new5543
 
2020-05-04 00:01:58K2NVNewEngQPSingle OpLP6,768new5547
2020-05-03 21:09:36W2VMNewEngQPSingle OpLP3,330new5547
2020-05-03 20:30:10W2DXEARISO CWLP3,344new5543
2020-05-03 14:28:31KM2LARISO CWHP18,200new5543
2020-05-03 13:02:16K2NVARISO CWHP281,735new5543
2020-04-29 20:02:13W2VMCWopsTSingle OpLP2,352new5536
2020-04-29 14:02:33W2VMCWopsTSingle OpLP1,763new5535
2020-04-29 02:24:59KA2WIKFlQPSOAB(A)MixedLP20,696new5529
2020-04-29 00:47:31K2RSKFlQPSOABMixedLP17,430new5529
2020-04-28 00:24:08K2QOFlQPSOAB(A)MixedLP34,844update5529
 
2020-04-27 02:59:35NN2NNFlQPSOAB(A)MixedHP12,818new5529
2020-04-27 00:14:27WB2AIVFlQPSOAB(A)CWLP3,264new5529
2020-04-27 00:10:21AC2FAFlQPSOABCWLP224new5529
2020-04-26 23:55:03W2DXEFlQPSOABCWLP21,996new5529
2020-04-26 22:45:02W2GRFlQPSOAB(A)MixedHP28,196new5529
2020-04-26 22:14:55K2QBFlQPSOAB(A)MixedHP28,016new5529
2020-04-26 22:13:55WB2WPMFlQPSOAB(A)CWHP11,920new5529
2020-04-26 22:07:41NS2NFlQPSOAB(A)MixedHP47,760new5529
2020-04-26 21:30:04AA2GFFlQPSOAB(A)MixedHP11,395new5529
2020-04-26 21:21:14N2CUFlQPSOAB(A)MixedHP53,944new5529
 
2020-04-26 21:14:34KM2LFlQPSOAB(A)MixedHP19,372new5529
2020-04-26 19:38:36W2TBFlQPSOAB(A)MixedHP62,832new5529
2020-04-26 18:56:54AA2ZWFlQPSOAB(A)CWLP18,648new5529
2020-04-26 18:22:25K2NVFlQPSOAB(A)MixedHP40,117new5529
2020-04-26 17:56:29W2VMFlQPSOAB(A)MixedLP23,760new5529
2020-04-26 17:15:27K2ZR/4(K2ZR)FlQPSOAB(A)MixedLP115,830new